| time (UTC) | temp C | wind direction | speed KPH | gust KPH | rain 1hr cm | rain 24hr cm | rain mn cm | humidity % | barometer mb |
| 20260510180024 | 18 | 45 | 0.0 | 0.0 | 0.00 | 0.00 | 0.00 | 61 | 988.1 |
| 20260510175524 | 18 | 45 | 0.0 | 0.0 | 0.00 | 0.00 | 0.00 | 60 | 988.1 |
| 20260510175027 | 18 | 45 | 0.0 | 0.0 | 0.00 | 0.00 | 0.00 | 59 | 988.0 |
| 20260510174524 | 18 | 48 | 0.0 | 0.0 | 0.00 | 0.00 | 0.00 | 59 | 987.8 |
| 20260510174028 | 18 | 346 | 0.0 | 0.0 | 0.00 | 0.00 | 0.00 | 60 | 987.9 |
| 20260510173524 | 18 | 96 | 0.0 | 0.0 | 0.00 | 0.00 | 0.00 | 62 | 988.0 |
| 20260510173027 | 17 | 42 | 0.0 | 0.0 | 0.00 | 0.00 | 0.00 | 63 | 988.2 |
| 20260510172524 | 17 | 72 | 0.0 | 0.0 | 0.00 | 0.00 | 0.00 | 65 | 988.0 |
| 20260510172026 | 17 | 95 | 0.0 | 0.0 | 0.00 | 0.00 | 0.00 | 65 | 988.0 |
| 20260510171524 | 18 | 151 | 0.0 | 0.0 | 0.00 | 0.00 | 0.00 | 68 | 988.2 |
| 20260510171027 | 18 | 72 | 0.0 | 0.0 | 0.00 | 0.00 | 0.00 | 68 | 987.8 |
| 20260510170525 | 18 | 68 | 0.0 | 0.0 | 0.00 | 0.00 | 0.00 | 68 | 987.7 |
| 20260510170025 | 18 | 68 | 0.0 | 0.0 | 0.00 | 0.00 | 0.00 | 68 | 987.6 |
| 20260510165523 | 18 | 68 | 0.0 | 0.0 | 0.00 | 0.00 | 0.00 | 68 | 987.8 |
| 20260510165026 | 18 | 68 | 0.0 | 0.0 | 0.00 | 0.00 | 0.00 | 67 | 987.9 |
| 20260510164523 | 18 | 68 | 0.0 | 0.0 | 0.00 | 0.00 | 0.00 | 66 | 987.6 |
| 20260510164026 | 18 | 68 | 0.0 | 0.0 | 0.00 | 0.00 | 0.00 | 66 | 987.7 |
| 20260510163524 | 18 | 68 | 0.0 | 0.0 | 0.00 | 0.00 | 0.00 | 65 | 987.6 |
| 20260510163028 | 18 | 68 | 0.0 | 0.0 | 0.00 | 0.00 | 0.00 | 63 | 987.5 |
| 20260510162524 | 18 | 158 | 0.0 | 0.0 | 0.00 | 0.00 | 0.00 | 62 | 987.4 |
| 20260510162027 | 18 | 157 | 0.0 | 0.0 | 0.00 | 0.00 | 0.00 | 62 | 987.4 |
| 20260510161524 | 19 | 338 | 0.0 | 0.0 | 0.00 | 0.00 | 0.00 | 63 | 987.4 |
| 20260510161027 | 19 | 338 | 0.0 | 0.0 | 0.00 | 0.00 | 0.00 | 63 | 987.5 |
| 20260510160524 | 19 | 338 | 0.0 | 0.0 | 0.00 | 0.00 | 0.00 | 64 | 987.4 |
| 20260510160024 | 19 | 338 | 0.0 | 0.0 | 0.00 | 0.00 | 0.00 | 64 | 987.4 |
| 20260510155524 | 19 | 338 | 0.0 | 0.0 | 0.00 | 0.00 | 0.00 | 64 | 987.2 |
| 20260510155026 | 19 | 338 | 0.0 | 0.0 | 0.00 | 0.00 | 0.00 | 63 | 987.3 |
| 20260510154525 | 19 | 338 | 0.0 | 0.0 | 0.00 | 0.00 | 0.00 | 63 | 987.2 |
| 20260510154026 | 19 | 338 | 0.0 | 0.0 | 0.00 | 0.00 | 0.00 | 63 | 987.3 |
| 20260510153524 | 18 | 338 | 0.0 | 0.0 | 0.00 | 0.00 | 0.00 | 64 | 987.2 |
| 20260510153026 | 18 | 338 | 0.0 | 0.0 | 0.00 | 0.00 | 0.00 | 64 | 987.2 |
| 20260510152524 | 18 | 338 | 0.0 | 0.0 | 0.00 | 0.00 | 0.00 | 64 | 987.4 |
| 20260510152026 | 18 | 342 | 0.0 | 0.0 | 0.00 | 0.00 | 0.00 | 65 | 987.5 |
| 20260510151524 | 18 | 338 | 0.0 | 0.0 | 0.00 | 0.00 | 0.00 | 65 | 987.5 |
| 20260510151027 | 18 | 338 | 0.0 | 0.0 | 0.00 | 0.00 | 0.00 | 64 | 987.5 |
| 20260510150525 | 18 | 338 | 0.0 | 0.0 | 0.00 | 0.00 | 0.00 | 64 | 987.6 |
| 20260510150024 | 18 | 338 | 0.0 | 0.0 | 0.00 | 0.00 | 0.00 | 64 | 987.7 |
| 20260510145523 | 18 | 338 | 0.0 | 0.0 | 0.00 | 0.00 | 0.00 | 64 | 987.9 |
| 20260510145027 | 18 | 338 | 0.0 | 0.0 | 0.00 | 0.00 | 0.00 | 64 | 987.9 |
| 20260510144524 | 18 | 338 | 0.0 | 0.0 | 0.00 | 0.00 | 0.00 | 64 | 988.1 |
| 20260510144026 | 18 | 338 | 0.0 | 0.0 | 0.00 | 0.00 | 0.00 | 62 | 988.3 |
| 20260510143524 | 18 | 338 | 0.0 | 0.0 | 0.00 | 0.00 | 0.00 | 62 | 988.3 |
| 20260510143027 | 18 | 209 | 0.0 | 0.0 | 0.00 | 0.00 | 0.00 | 62 | 988.6 |
| 20260510142524 | 18 | 338 | 0.0 | 0.0 | 0.00 | 0.00 | 0.00 | 62 | 988.8 |
| 20260510142026 | 18 | 338 | 0.0 | 0.0 | 0.00 | 0.00 | 0.00 | 62 | 989.1 |
| 20260510141524 | 17 | 338 | 0.0 | 0.0 | 0.00 | 0.00 | 0.00 | 62 | 989.2 |
| 20260510141027 | 17 | 158 | 0.0 | 0.0 | 0.00 | 0.00 | 0.00 | 63 | 989.3 |
| 20260510140525 | 17 | 158 | 0.0 | 0.0 | 0.00 | 0.00 | 0.00 | 62 | 989.2 |
| 20260510140024 | 17 | 158 | 0.0 | 0.0 | 0.00 | 0.00 | 0.00 | 61 | 989.3 |
| 20260510135524 | 17 | 158 | 0.0 | 0.0 | 0.00 | 0.00 | 0.00 | 61 | 989.3 |
| 20260510135026 | 17 | 158 | 0.0 | 0.0 | 0.00 | 0.00 | 0.00 | 63 | 989.3 |
| 20260510134523 | 17 | 158 | 0.0 | 0.0 | 0.00 | 0.00 | 0.00 | 64 | 989.5 |
| 20260510134026 | 17 | 158 | 0.0 | 0.0 | 0.00 | 0.00 | 0.00 | 65 | 989.4 |
| 20260510133525 | 17 | 158 | 0.0 | 0.0 | 0.00 | 0.00 | 0.00 | 67 | 989.5 |
| 20260510133026 | 16 | 158 | 0.0 | 0.0 | 0.00 | 0.00 | 0.00 | 66 | 989.4 |
| 20260510132524 | 16 | 135 | 0.0 | 0.0 | 0.00 | 0.00 | 0.00 | 65 | 989.2 |
| 20260510132026 | 16 | 112 | 0.0 | 0.0 | 0.00 | 0.00 | 0.00 | 66 | 989.6 |
| 20260510131524 | 16 | 68 | 0.0 | 0.0 | 0.00 | 0.00 | 0.00 | 66 | 989.9 |
| 20260510131027 | 16 | 90 | 0.0 | 0.0 | 0.00 | 0.00 | 0.00 | 66 | 990.1 |
| 20260510130525 | 16 | 22 | 0.0 | 0.0 | 0.00 | 0.00 | 0.00 | 65 | 990.5 |
| 20260510130024 | 16 | 22 | 0.0 | 0.0 | 0.00 | 0.00 | 0.00 | 64 | 990.8 |
| 20260510125523 | 16 | 22 | 0.0 | 0.0 | 0.00 | 0.00 | 0.00 | 64 | 990.7 |
| 20260510125026 | 16 | 120 | 0.0 | 0.0 | 0.00 | 0.00 | 0.00 | 62 | 990.7 |
| 20260510124524 | 16 | 158 | 0.0 | 0.0 | 0.00 | 0.00 | 0.00 | 61 | 990.5 |
| 20260510124028 | 17 | 90 | 0.0 | 0.0 | 0.00 | 0.00 | 0.00 | 58 | 990.3 |
| 20260510123523 | 17 | 0 | 0.0 | 0.0 | 0.00 | 0.00 | 0.00 | 56 | 990.3 |
| 20260510123027 | 19 | 116 | 0.0 | 0.0 | 0.00 | 0.00 | 0.00 | 52 | 990.0 |
| 20260510122524 | 21 | 353 | 0.0 | 9.7 | 0.00 | 0.00 | 0.00 | 48 | 989.9 |
| 20260510122026 | 22 | 111 | 0.0 | 9.7 | 0.00 | 0.00 | 0.00 | 45 | 988.8 |
| 20260510121524 | 22 | 180 | 0.0 | 0.0 | 0.00 | 0.00 | 0.00 | 44 | 987.7 |
| 20260510121026 | 22 | 180 | 0.0 | 0.0 | 0.00 | 0.00 | 0.00 | 44 | 987.6 |
| 20260510120523 | 23 | 180 | 0.0 | 0.0 | 0.00 | 0.00 | 0.00 | 43 | 987.7 |
| 20260510120024 | 23 | 180 | 0.0 | 0.0 | 0.00 | 0.00 | 0.00 | 43 | 987.7 |
| 20260510115524 | 23 | 180 | 0.0 | 0.0 | 0.00 | 0.00 | 0.00 | 43 | 987.8 |
| 20260510115026 | 23 | 180 | 0.0 | 0.0 | 0.00 | 0.00 | 0.00 | 43 | 988.0 |
| 20260510114524 | 23 | 180 | 0.0 | 0.0 | 0.00 | 0.00 | 0.00 | 43 | 988.0 |
| 20260510114026 | 23 | 180 | 0.0 | 0.0 | 0.00 | 0.00 | 0.00 | 42 | 988.0 |
| 20260510113523 | 23 | 180 | 0.0 | 0.0 | 0.00 | 0.00 | 0.00 | 41 | 988.0 |
| 20260510113026 | 23 | 68 | 0.0 | 0.0 | 0.00 | 0.00 | 0.00 | 42 | 988.1 |
| 20260510112523 | 23 | 68 | 0.0 | 0.0 | 0.00 | 0.00 | 0.00 | 42 | 988.0 |
| 20260510112026 | 23 | 72 | 0.0 | 0.0 | 0.00 | 0.00 | 0.00 | 41 | 988.0 |
| 20260510111523 | 23 | 0 | 0.0 | 0.0 | 0.00 | 0.00 | 0.00 | 42 | 988.1 |
| 20260510111026 | 23 | 0 | 0.0 | 0.0 | 0.00 | 0.00 | 0.00 | 42 | 988.0 |
| 20260510110524 | 23 | 98 | 0.0 | 0.0 | 0.00 | 0.00 | 0.00 | 42 | 988.1 |
| 20260510110023 | 23 | 22 | 0.0 | 0.0 | 0.00 | 0.00 | 0.00 | 41 | 988.2 |
| 20260510105524 | 23 | 112 | 0.0 | 0.0 | 0.00 | 0.00 | 0.00 | 41 | 988.3 |
| 20260510105026 | 23 | 90 | 0.0 | 0.0 | 0.00 | 0.00 | 0.00 | 41 | 988.3 |
| 20260510104523 | 23 | 109 | 0.0 | 0.0 | 0.00 | 0.00 | 0.00 | 40 | 988.2 |
| 20260510104026 | 23 | 158 | 0.0 | 0.0 | 0.00 | 0.00 | 0.00 | 40 | 988.4 |
| 20260510103524 | 23 | 126 | 0.0 | 0.0 | 0.00 | 0.00 | 0.00 | 40 | 988.4 |
| 20260510103027 | 23 | 105 | 0.0 | 0.0 | 0.00 | 0.00 | 0.00 | 40 | 988.6 |
| 20260510102523 | 23 | 135 | 0.0 | 0.0 | 0.00 | 0.00 | 0.00 | 40 | 988.6 |
| 20260510102026 | 24 | 68 | 0.0 | 0.0 | 0.00 | 0.00 | 0.00 | 39 | 988.7 |
| 20260510101524 | 25 | 84 | 0.0 | 0.0 | 0.00 | 0.00 | 0.00 | 38 | 988.7 |
| 20260510101026 | 25 | 158 | 0.0 | 0.0 | 0.00 | 0.00 | 0.00 | 37 | 988.8 |
| 20260510100524 | 26 | 90 | 0.0 | 0.0 | 0.00 | 0.00 | 0.00 | 36 | 988.7 |
| 20260510100023 | 27 | 90 | 0.0 | 1.6 | 0.00 | 0.00 | 0.00 | 34 | 988.8 |
| 20260510095524 | 29 | 112 | 0.0 | 0.0 | 0.00 | 0.00 | 0.00 | 33 | 988.9 |
| 20260510095026 | 31 | 91 | 0.0 | 3.2 | 0.00 | 0.00 | 0.00 | 32 | 988.7 |
| 20260510094523 | 31 | 158 | 0.0 | 1.6 | 0.00 | 0.00 | 0.00 | 32 | 988.7 |
| 20260510094026 | 31 | 158 | 0.0 | 3.2 | 0.00 | 0.00 | 0.00 | 33 | 988.8 |
| 20260510093524 | 30 | 112 | 0.0 | 0.0 | 0.00 | 0.00 | 0.00 | 33 | 988.9 |
| 20260510093027 | 30 | 109 | 0.0 | 0.0 | 0.00 | 0.00 | 0.00 | 35 | 988.9 |
| 20260510092523 | 28 | 99 | 0.0 | 0.0 | 0.00 | 0.00 | 0.00 | 36 | 988.8 |
| 20260510092026 | 28 | 158 | 0.0 | 0.0 | 0.00 | 0.00 | 0.00 | 37 | 989.0 |
| 20260510091523 | 27 | 345 | 0.0 | 0.0 | 0.00 | 0.00 | 0.00 | 37 | 989.0 |
| 20260510091025 | 27 | 112 | 0.0 | 0.0 | 0.00 | 0.00 | 0.00 | 37 | 989.1 |
| 20260510090524 | 28 | 133 | 0.0 | 0.0 | 0.00 | 0.00 | 0.00 | 35 | 989.2 |
| 20260510090024 | 28 | 21 | 0.0 | 0.0 | 0.00 | 0.00 | 0.00 | 36 | 989.2 |
| 20260510085523 | 28 | 128 | 0.0 | 0.0 | 0.00 | 0.00 | 0.00 | 37 | 989.3 |
| 20260510085026 | 28 | 112 | 0.0 | 0.0 | 0.00 | 0.00 | 0.00 | 38 | 989.3 |
| 20260510084523 | 27 | 135 | 0.0 | 0.0 | 0.00 | 0.00 | 0.00 | 38 | 989.3 |
| 20260510084026 | 27 | 338 | 0.0 | 0.0 | 0.00 | 0.00 | 0.00 | 39 | 989.3 |
| 20260510083523 | 27 | 131 | 0.0 | 0.0 | 0.00 | 0.00 | 0.00 | 40 | 989.3 |
| 20260510083026 | 26 | 135 | 0.0 | 0.0 | 0.00 | 0.00 | 0.00 | 42 | 989.4 |
| 20260510082524 | 26 | 158 | 0.0 | 0.0 | 0.00 | 0.00 | 0.00 | 42 | 989.3 |
| 20260510082026 | 26 | 109 | 0.0 | 0.0 | 0.00 | 0.00 | 0.00 | 42 | 989.2 |
| 20260510081523 | 26 | 136 | 0.0 | 0.0 | 0.00 | 0.00 | 0.00 | 43 | 989.2 |
| 20260510081026 | 25 | 138 | 0.0 | 0.0 | 0.00 | 0.00 | 0.00 | 45 | 989.2 |
| 20260510080524 | 25 | 45 | 0.0 | 0.0 | 0.00 | 0.00 | 0.00 | 46 | 989.3 |
| 20260510080023 | 25 | 158 | 0.0 | 0.0 | 0.00 | 0.00 | 0.00 | 48 | 989.1 |
| 20260510075523 | 23 | 143 | 0.0 | 0.0 | 0.00 | 0.00 | 0.00 | 50 | 989.1 |
| 20260510075026 | 23 | 158 | 0.0 | 0.0 | 0.00 | 0.00 | 0.00 | 51 | 989.2 |
| 20260510074524 | 23 | 158 | 0.0 | 0.0 | 0.00 | 0.00 | 0.00 | 51 | 989.1 |
| 20260510074025 | 22 | 158 | 0.0 | 0.0 | 0.00 | 0.00 | 0.00 | 54 | 989.2 |
| 20260510073523 | 21 | 94 | 0.0 | 0.0 | 0.00 | 0.00 | 0.00 | 54 | 989.2 |
| 20260510073026 | 21 | 158 | 0.0 | 0.0 | 0.00 | 0.00 | 0.00 | 55 | 989.1 |
| 20260510072523 | 21 | 158 | 0.0 | 0.0 | 0.00 | 0.00 | 0.00 | 56 | 988.9 |
| 20260510072026 | 22 | 68 | 0.0 | 0.0 | 0.00 | 0.00 | 0.00 | 56 | 989.0 |
| 20260510071523 | 22 | 68 | 0.0 | 0.0 | 0.00 | 0.00 | 0.00 | 55 | 989.0 |
| 20260510071026 | 23 | 68 | 0.0 | 0.0 | 0.00 | 0.00 | 0.00 | 54 | 989.0 |
| 20260510070523 | 23 | 45 | 0.0 | 0.0 | 0.00 | 0.00 | 0.00 | 56 | 989.0 |
| 20260510070023 | 23 | 45 | 0.0 | 0.0 | 0.00 | 0.00 | 0.00 | 56 | 988.9 |
| 20260510065523 | 23 | 45 | 0.0 | 0.0 | 0.00 | 0.00 | 0.00 | 56 | 988.9 |
| 20260510065025 | 23 | 45 | 0.0 | 0.0 | 0.00 | 0.00 | 0.00 | 57 | 988.8 |
| 20260510064523 | 22 | 45 | 0.0 | 0.0 | 0.00 | 0.00 | 0.00 | 58 | 988.9 |
| 20260510064025 | 22 | 45 | 0.0 | 0.0 | 0.00 | 0.00 | 0.00 | 59 | 988.7 |
| 20260510063523 | 22 | 45 | 0.0 | 0.0 | 0.00 | 0.00 | 0.00 | 60 | 988.6 |
| 20260510063025 | 22 | 45 | 0.0 | 0.0 | 0.00 | 0.00 | 0.00 | 60 | 988.6 |
| 20260510062523 | 22 | 45 | 0.0 | 0.0 | 0.00 | 0.00 | 0.00 | 60 | 988.6 |
| 20260510062028 | 22 | 45 | 0.0 | 0.0 | 0.00 | 0.00 | 0.00 | 62 | 988.5 |
| 20260510061523 | 21 | 45 | 0.0 | 0.0 | 0.00 | 0.00 | 0.00 | 64 | 988.4 |
| 20260510061026 | 21 | 45 | 0.0 | 0.0 | 0.00 | 0.00 | 0.00 | 66 | 988.4 |
| 20260510060523 | 20 | 45 | 0.0 | 0.0 | 0.00 | 0.00 | 0.00 | 70 | 988.4 |
| 20260510060023 | 18 | 45 | 0.0 | 0.0 | 0.00 | 0.00 | 0.00 | 74 | 988.3 |
| 20260510055523 | 17 | 45 | 0.0 | 0.0 | 0.00 | 0.00 | 0.00 | 78 | 988.4 |
| 20260510055025 | 15 | 45 | 0.0 | 0.0 | 0.00 | 0.00 | 0.00 | 82 | 988.3 |
| 20260510054523 | 13 | 45 | 0.0 | 0.0 | 0.00 | 0.00 | 0.00 | 84 | 988.5 |
| 20260510054026 | 12 | 45 | 0.0 | 0.0 | 0.00 | 0.00 | 0.00 | 85 | 988.1 |
| 20260510053523 | 12 | 68 | 0.0 | 0.0 | 0.00 | 0.00 | 0.00 | 85 | 988.2 |
| 20260510053026 | 12 | 68 | 0.0 | 0.0 | 0.00 | 0.00 | 0.00 | 85 | 988.0 |
| 20260510052523 | 12 | 68 | 0.0 | 0.0 | 0.00 | 0.00 | 0.00 | 85 | 988.0 |
| 20260510052025 | 12 | 68 | 0.0 | 0.0 | 0.00 | 0.00 | 0.00 | 85 | 988.1 |
| 20260510051522 | 12 | 68 | 0.0 | 0.0 | 0.00 | 0.00 | 0.00 | 85 | 988.0 |
| 20260510051028 | 12 | 68 | 0.0 | 0.0 | 0.00 | 0.00 | 0.00 | 85 | 988.0 |
| 20260510050523 | 12 | 68 | 0.0 | 0.0 | 0.00 | 0.00 | 0.00 | 86 | 987.9 |
| 20260510050023 | 12 | 68 | 0.0 | 0.0 | 0.00 | 0.00 | 0.00 | 86 | 987.7 |
| 20260510045523 | 12 | 68 | 0.0 | 0.0 | 0.00 | 0.00 | 0.00 | 86 | 987.7 |
| 20260510045025 | 12 | 68 | 0.0 | 0.0 | 0.00 | 0.00 | 0.00 | 86 | 987.7 |
| 20260510044523 | 12 | 68 | 0.0 | 0.0 | 0.00 | 0.00 | 0.00 | 86 | 987.7 |
| 20260510044025 | 12 | 68 | 0.0 | 0.0 | 0.00 | 0.00 | 0.00 | 86 | 987.7 |
| 20260510043523 | 12 | 68 | 0.0 | 0.0 | 0.00 | 0.00 | 0.00 | 86 | 987.7 |
| 20260510043025 | 12 | 68 | 0.0 | 0.0 | 0.00 | 0.00 | 0.00 | 86 | 987.6 |
| 20260510042523 | 12 | 68 | 0.0 | 0.0 | 0.00 | 0.00 | 0.00 | 86 | 987.9 |
| 20260510042026 | 12 | 68 | 0.0 | 0.0 | 0.00 | 0.00 | 0.00 | 86 | 987.9 |
| 20260510041522 | 12 | 68 | 0.0 | 0.0 | 0.00 | 0.00 | 0.00 | 86 | 987.8 |
| 20260510041025 | 12 | 68 | 0.0 | 0.0 | 0.00 | 0.00 | 0.00 | 86 | 987.8 |
| 20260510040523 | 12 | 68 | 0.0 | 0.0 | 0.00 | 0.00 | 0.00 | 86 | 987.8 |
| 20260510040022 | 12 | 68 | 0.0 | 0.0 | 0.00 | 0.00 | 0.00 | 87 | 987.8 |
| 20260510035523 | 12 | 68 | 0.0 | 0.0 | 0.00 | 0.00 | 0.00 | 87 | 987.7 |
| 20260510035026 | 12 | 68 | 0.0 | 0.0 | 0.00 | 0.00 | 0.00 | 87 | 987.8 |
| 20260510034522 | 12 | 68 | 0.0 | 0.0 | 0.00 | 0.00 | 0.00 | 87 | 987.7 |
| 20260510034027 | 12 | 68 | 0.0 | 0.0 | 0.00 | 0.00 | 0.00 | 87 | 987.7 |
| 20260510033523 | 12 | 68 | 0.0 | 0.0 | 0.00 | 0.00 | 0.00 | 87 | 987.6 |
| 20260510033025 | 12 | 68 | 0.0 | 0.0 | 0.00 | 0.00 | 0.00 | 87 | 987.6 |
| 20260510032523 | 12 | 68 | 0.0 | 0.0 | 0.00 | 0.00 | 0.00 | 87 | 987.5 |
| 20260510032026 | 12 | 68 | 0.0 | 0.0 | 0.00 | 0.00 | 0.00 | 87 | 987.6 |
| 20260510031523 | 12 | 68 | 0.0 | 0.0 | 0.00 | 0.00 | 0.00 | 87 | 987.6 |
| 20260510031025 | 12 | 30 | 0.0 | 0.0 | 0.00 | 0.00 | 0.00 | 87 | 987.6 |
| 20260510030523 | 12 | 0 | 0.0 | 0.0 | 0.00 | 0.00 | 0.00 | 87 | 987.5 |
| 20260510030022 | 12 | 0 | 0.0 | 0.0 | 0.00 | 0.00 | 0.00 | 87 | 987.3 |
| 20260510025522 | 13 | 0 | 0.0 | 0.0 | 0.00 | 0.00 | 0.00 | 87 | 987.2 |
| 20260510025025 | 13 | 0 | 0.0 | 0.0 | 0.00 | 0.00 | 0.00 | 87 | 987.3 |
| 20260510024522 | 13 | 0 | 0.0 | 0.0 | 0.00 | 0.00 | 0.00 | 87 | 987.4 |
| 20260510024026 | 13 | 0 | 0.0 | 0.0 | 0.00 | 0.00 | 0.00 | 87 | 987.7 |
| 20260510023522 | 13 | 0 | 0.0 | 0.0 | 0.00 | 0.00 | 0.00 | 87 | 987.8 |
| 20260510023025 | 13 | 0 | 0.0 | 0.0 | 0.00 | 0.00 | 0.00 | 87 | 987.7 |
| 20260510022522 | 13 | 0 | 0.0 | 0.0 | 0.00 | 0.00 | 0.00 | 87 | 987.5 |
| 20260510022025 | 13 | 0 | 0.0 | 0.0 | 0.00 | 0.00 | 0.00 | 87 | 987.6 |
| 20260510021523 | 13 | 0 | 0.0 | 0.0 | 0.00 | 0.00 | 0.00 | 87 | 987.6 |
| 20260510021025 | 13 | 0 | 0.0 | 0.0 | 0.00 | 0.00 | 0.00 | 87 | 987.5 |
| 20260510020523 | 13 | 0 | 0.0 | 0.0 | 0.00 | 0.00 | 0.00 | 87 | 987.5 |
| 20260510020023 | 13 | 0 | 0.0 | 0.0 | 0.00 | 0.00 | 0.00 | 87 | 987.5 |
| 20260510015522 | 13 | 0 | 0.0 | 0.0 | 0.00 | 0.00 | 0.00 | 87 | 987.4 |
| 20260510015024 | 13 | 0 | 0.0 | 0.0 | 0.00 | 0.00 | 0.00 | 87 | 987.4 |
| 20260510014522 | 13 | 0 | 0.0 | 0.0 | 0.00 | 0.00 | 0.00 | 87 | 987.5 |
| 20260510014025 | 13 | 0 | 0.0 | 0.0 | 0.00 | 0.00 | 0.00 | 87 | 987.6 |
| 20260510013522 | 13 | 0 | 0.0 | 0.0 | 0.00 | 0.00 | 0.00 | 87 | 987.6 |
| 20260510013025 | 13 | 0 | 0.0 | 0.0 | 0.00 | 0.00 | 0.00 | 87 | 987.7 |
| 20260510012522 | 13 | 0 | 0.0 | 0.0 | 0.00 | 0.00 | 0.00 | 87 | 987.7 |
| 20260510012024 | 13 | 0 | 0.0 | 0.0 | 0.00 | 0.00 | 0.00 | 87 | 987.8 |
| 20260510011522 | 13 | 0 | 0.0 | 0.0 | 0.00 | 0.00 | 0.00 | 87 | 988.0 |
| 20260510011025 | 13 | 0 | 0.0 | 0.0 | 0.00 | 0.00 | 0.00 | 87 | 988.0 |
| 20260510010522 | 13 | 0 | 0.0 | 0.0 | 0.00 | 0.00 | 0.00 | 86 | 988.0 |
| 20260510010022 | 13 | 0 | 0.0 | 0.0 | 0.00 | 0.00 | 0.00 | 86 | 988.1 |
| 20260510005522 | 13 | 0 | 0.0 | 0.0 | 0.00 | 0.00 | 0.00 | 86 | 988.1 |
| 20260510005026 | 13 | 0 | 0.0 | 0.0 | 0.00 | 0.00 | 0.00 | 86 | 988.0 |
| 20260510004522 | 13 | 0 | 0.0 | 0.0 | 0.00 | 0.00 | 0.00 | 86 | 988.1 |
| 20260510004024 | 13 | 0 | 0.0 | 0.0 | 0.00 | 0.00 | 0.00 | 86 | 988.0 |
| 20260510003522 | 13 | 0 | 0.0 | 0.0 | 0.00 | 0.00 | 0.00 | 85 | 988.0 |
| 20260510003025 | 13 | 0 | 0.0 | 0.0 | 0.00 | 0.00 | 0.00 | 86 | 988.0 |
| 20260510002523 | 13 | 0 | 0.0 | 0.0 | 0.00 | 0.00 | 0.00 | 86 | 988.2 |
| 20260510002027 | 13 | 0 | 0.0 | 0.0 | 0.00 | 0.00 | 0.00 | 86 | 988.1 |
| 20260510001523 | 13 | 0 | 0.0 | 0.0 | 0.00 | 0.00 | 0.00 | 86 | 988.2 |
| 20260510001026 | 13 | 0 | 0.0 | 0.0 | 0.00 | 0.00 | 0.00 | 86 | 988.2 |
| 20260510000522 | 13 | 0 | 0.0 | 0.0 | 0.00 | 0.00 | 0.00 | 86 | 988.0 |
| 20260510000022 | 13 | 0 | 0.0 | 0.0 | 0.00 | 0.00 | 0.00 | 86 | 988.1 |
| 20260509235522 | 13 | 0 | 0.0 | 0.0 | 0.00 | 0.00 | 0.00 | 86 | 988.2 |
| 20260509235026 | 13 | 0 | 0.0 | 0.0 | 0.00 | 0.00 | 0.00 | 86 | 988.1 |
| 20260509234522 | 13 | 0 | 0.0 | 0.0 | 0.00 | 0.00 | 0.00 | 86 | 988.4 |
| 20260509234024 | 13 | 0 | 0.0 | 0.0 | 0.00 | 0.00 | 0.00 | 86 | 988.3 |
| 20260509233522 | 13 | 0 | 0.0 | 0.0 | 0.00 | 0.00 | 0.00 | 86 | 988.4 |
| 20260509233024 | 13 | 0 | 0.0 | 0.0 | 0.00 | 0.00 | 0.00 | 86 | 988.5 |
| 20260509232522 | 13 | 0 | 0.0 | 0.0 | 0.00 | 0.00 | 0.00 | 86 | 988.4 |
| 20260509232025 | 13 | 0 | 0.0 | 0.0 | 0.00 | 0.00 | 0.00 | 86 | 988.4 |
| 20260509231522 | 13 | 0 | 0.0 | 0.0 | 0.00 | 0.00 | 0.00 | 86 | 988.4 |
| 20260509231024 | 13 | 0 | 0.0 | 0.0 | 0.00 | 0.00 | 0.00 | 86 | 988.3 |
| 20260509230522 | 13 | 0 | 0.0 | 0.0 | 0.00 | 0.00 | 0.00 | 86 | 988.3 |
| 20260509225522 | 13 | 0 | 0.0 | 0.0 | 0.00 | 0.00 | 0.00 | 86 | 988.2 |
| 20260509225024 | 13 | 0 | 0.0 | 0.0 | 0.00 | 0.00 | 0.00 | 86 | 988.2 |
| 20260509224522 | 13 | 0 | 0.0 | 0.0 | 0.00 | 0.00 | 0.00 | 86 | 988.2 |
| 20260509224024 | 13 | 0 | 0.0 | 0.0 | 0.00 | 0.00 | 0.00 | 85 | 988.3 |
| 20260509223523 | 13 | 0 | 0.0 | 0.0 | 0.00 | 0.00 | 0.00 | 85 | 988.3 |
| 20260509223025 | 14 | 0 | 0.0 | 0.0 | 0.00 | 0.00 | 0.00 | 85 | 988.1 |
| 20260509222522 | 14 | 0 | 0.0 | 0.0 | 0.00 | 0.00 | 0.00 | 85 | 988.2 |
| 20260509222024 | 14 | 0 | 0.0 | 0.0 | 0.00 | 0.00 | 0.00 | 84 | 988.1 |
| 20260509221521 | 14 | 0 | 0.0 | 0.0 | 0.00 | 0.00 | 0.00 | 84 | 988.0 |
| 20260509221024 | 14 | 0 | 0.0 | 0.0 | 0.00 | 0.00 | 0.00 | 84 | 988.2 |
| 20260509220522 | 14 | 0 | 0.0 | 0.0 | 0.00 | 0.00 | 0.00 | 84 | 988.2 |
| 20260509220022 | 14 | 0 | 0.0 | 0.0 | 0.00 | 0.00 | 0.00 | 84 | 988.0 |
| 20260509215523 | 14 | 0 | 0.0 | 0.0 | 0.00 | 0.00 | 0.00 | 84 | 987.9 |
| 20260509215025 | 15 | 0 | 0.0 | 0.0 | 0.00 | 0.00 | 0.00 | 84 | 987.8 |
| 20260509214522 | 15 | 0 | 0.0 | 0.0 | 0.00 | 0.00 | 0.00 | 84 | 987.8 |
| 20260509214031 | 15 | 0 | 0.0 | 0.0 | 0.00 | 0.00 | 0.00 | 84 | 987.8 |
| 20260509213522 | 15 | 0 | 0.0 | 0.0 | 0.00 | 0.00 | 0.00 | 84 | 987.8 |
| 20260509213027 | 15 | 0 | 0.0 | 0.0 | 0.00 | 0.00 | 0.00 | 84 | 987.6 |
| 20260509212522 | 15 | 0 | 0.0 | 0.0 | 0.00 | 0.00 | 0.00 | 84 | 987.7 |
| 20260509212025 | 15 | 0 | 0.0 | 0.0 | 0.00 | 0.00 | 0.00 | 84 | 987.7 |
| 20260509211522 | 15 | 0 | 0.0 | 0.0 | 0.00 | 0.00 | 0.00 | 84 | 987.9 |
| 20260509211026 | 15 | 0 | 0.0 | 0.0 | 0.00 | 0.00 | 0.00 | 84 | 987.7 |
| 20260509210523 | 15 | 0 | 0.0 | 0.0 | 0.00 | 0.00 | 0.00 | 84 | 987.8 |
| 20260509210022 | 15 | 0 | 0.0 | 0.0 | 0.00 | 0.00 | 0.00 | 84 | 987.7 |
| 20260509205522 | 15 | 0 | 0.0 | 0.0 | 0.00 | 0.00 | 0.00 | 84 | 987.6 |
| 20260509205025 | 15 | 0 | 0.0 | 0.0 | 0.00 | 0.00 | 0.00 | 84 | 987.7 |
| 20260509204521 | 15 | 346 | 0.0 | 0.0 | 0.00 | 0.00 | 0.00 | 83 | 987.5 |
| 20260509204026 | 15 | 0 | 0.0 | 0.0 | 0.00 | 0.00 | 0.00 | 83 | 987.6 |
| 20260509203522 | 15 | 0 | 0.0 | 0.0 | 0.00 | 0.00 | 0.00 | 83 | 987.6 |
| 20260509203024 | 15 | 0 | 0.0 | 0.0 | 0.00 | 0.00 | 0.00 | 83 | 987.5 |
| 20260509202523 | 15 | 0 | 0.0 | 0.0 | 0.00 | 0.00 | 0.00 | 83 | 987.7 |
| 20260509202025 | 15 | 338 | 0.0 | 0.0 | 0.00 | 0.00 | 0.00 | 82 | 987.6 |
| 20260509201522 | 15 | 0 | 0.0 | 0.0 | 0.00 | 0.00 | 0.00 | 82 | 987.7 |
| 20260509201026 | 15 | 315 | 0.0 | 0.0 | 0.00 | 0.00 | 0.00 | 82 | 987.5 |
| 20260509200522 | 15 | 315 | 0.0 | 0.0 | 0.00 | 0.00 | 0.00 | 82 | 987.4 |
| 20260509200022 | 15 | 315 | 0.0 | 0.0 | 0.00 | 0.00 | 0.00 | 81 | 987.2 |
| 20260509195522 | 15 | 315 | 0.0 | 0.0 | 0.00 | 0.00 | 0.00 | 81 | 987.2 |
| 20260509195025 | 15 | 315 | 0.0 | 0.0 | 0.00 | 0.00 | 0.00 | 81 | 987.1 |
| 20260509194521 | 15 | 270 | 0.0 | 0.0 | 0.00 | 0.00 | 0.00 | 81 | 987.2 |
| 20260509194025 | 15 | 270 | 0.0 | 0.0 | 0.00 | 0.00 | 0.00 | 80 | 987.2 |
| 20260509193521 | 15 | 270 | 0.0 | 0.0 | 0.00 | 0.00 | 0.00 | 80 | 987.1 |
| 20260509193024 | 15 | 276 | 0.0 | 0.0 | 0.00 | 0.00 | 0.00 | 80 | 987.0 |
| 20260509192522 | 15 | 315 | 0.0 | 0.0 | 0.00 | 0.00 | 0.00 | 80 | 987.0 |
| 20260509192025 | 15 | 315 | 0.0 | 0.0 | 0.00 | 0.00 | 0.00 | 79 | 987.0 |
| 20260509191522 | 15 | 315 | 0.0 | 0.0 | 0.00 | 0.00 | 0.00 | 79 | 987.1 |
| 20260509191024 | 15 | 315 | 0.0 | 0.0 | 0.00 | 0.00 | 0.00 | 78 | 987.1 |
| 20260509190523 | 16 | 315 | 0.0 | 0.0 | 0.00 | 0.00 | 0.00 | 78 | 987.1 |
| 20260509190022 | 16 | 315 | 0.0 | 0.0 | 0.00 | 0.00 | 0.00 | 78 | 987.0 |
| 20260509185521 | 16 | 315 | 0.0 | 0.0 | 0.00 | 0.00 | 0.00 | 77 | 987.0 |
| 20260509185024 | 16 | 315 | 0.0 | 0.0 | 0.00 | 0.00 | 0.00 | 77 | 987.1 |
| 20260509184521 | 16 | 315 | 0.0 | 0.0 | 0.00 | 0.00 | 0.00 | 76 | 987.1 |
| 20260509184033 | 16 | 315 | 0.0 | 0.0 | 0.00 | 0.00 | 0.00 | 76 | 987.1 |
| 20260509183522 | 16 | 315 | 0.0 | 0.0 | 0.00 | 0.00 | 0.00 | 75 | 987.1 |
| 20260509183024 | 16 | 315 | 0.0 | 0.0 | 0.00 | 0.00 | 0.00 | 75 | 987.1 |
| 20260509182522 | 16 | 315 | 0.0 | 0.0 | 0.00 | 0.00 | 0.00 | 75 | 987.0 |
| 20260509182034 | 16 | 315 | 0.0 | 0.0 | 0.00 | 0.00 | 0.00 | 75 | 987.1 |
| 20260509181521 | 16 | 315 | 0.0 | 0.0 | 0.00 | 0.00 | 0.00 | 74 | 987.2 |
| 20260509181024 | 16 | 315 | 0.0 | 0.0 | 0.00 | 0.00 | 0.00 | 74 | 987.2 |
| 20260509180521 | 16 | 315 | 0.0 | 0.0 | 0.00 | 0.00 | 0.00 | 74 | 987.4 |